Погода в Лечинкае

Россия / Кабардино-Балкарская Республика     43°33′38″N   43°26′08″E
темп.,
°C
ветер,
м/с
пор.,
м/с
влажн.,
%
обл.,
%
осадки,
мм/ч
давл.,
гПа
погр.,
м
18 апреля, вс
вс1800:00+7вюв1195100 0.0 1022202
03:00+7в1196100 0.0 1021129
06:00+7юв1297100 0.2 1019131
09:00+11в2282100 0.2 1018437
12:00+12в2380100 0.3 1017712
15:00+13ююв348939 3.4 1016273
18:00+13всв228718 0.6 1016111
21:00+11зсз1194100 0.6 101718
19 апреля, пн
пн1900:00+10з1191100 0.0 101610
03:00+11зюз1181100 0.0 101610
06:00+12юз117497 0.0 101612
09:00+15всв217138 0.0 1016481
12:00+18всв426281 0.1 10151339
15:00+18всв3363100 0.2 10141210
18:00+16всв127587 0.0 101476
21:00+13юз2181100 0.0 101515
20 апреля, вт
вт2000:00+13зюз117799 0.0 101311
03:00+11юв117899 0.0 101211
06:00+12ю2277100 0.0 101048
09:00+19вюв2452100 0.0 1007272
12:00+24вюв3540100 0.0 1004760
15:00+23всв3345100 0.0 1005814
18:00+18зюз3656100 0.1 1007157
21:00+15сз2371100 0.1 100964
21 апреля, ср
ср2100:00+13ссз2392100 1.3 1011195
03:00+10с1382100 1.3 1014256
06:00+9ююв1278100 0.0 1016241
09:00+10вюв347295 0.0 1018647
12:00+10вюв447499 0.0 1019863
15:00+9в3388100 0.1 1020566
18:00+8в3499100 0.5 1022444
21:00+7вюв1299100 1.1 1023209
22 апреля, чт
чт2200:00+7вюв1397100 0.2 1022197
03:00+7вюв1294100 0.3 1022138
06:00+7юв1292100 0.0 1022128
09:00+8в228588 0.0 1022370
12:00+8в3388100 0.2 1023580
15:00+8в2293100 0.6 1023389
18:00+7в1195100 0.2 1022227
21:00+7юв1298100 3.2 1023100